Regional Weather Roundup
Issued by NWS Sterling, VA

Home | Current Version | Previous Version | Text Only | Print | Product List | Glossary Off
Versions: 1 2 3 4 5 6 7 8 9 10 11 12 13 14 15 16 17 18 19 20 21 22 23 24 25 26 27

000
ASUS41 KLWX 212011
RWRLWX

REGIONAL WEATHER ROUNDUP
NATIONAL WEATHER SERVICE BALTIMORE MD/WASHINGTON DC
400 PM EDT SAT OCT 21 2017

Note: "FAIR" indicates few or no clouds below 12,000 feet
with no significant weather and/or obstructions to visibility.
 TC=TEMPERATURE CELSIUS

 * =Non NWS site. Station does not report precipitation (e.g. rain,
    snow, etc.), thunder, or fog.

DCZ001-MDZ009-015-VAZ040>042-051-053>054-212100-
WASHINGTON METRO

CITY           SKY/WX    TMP DP  RH WIND       PRES   REMARKS
WASHINGTON NAT PTSUNNY   77  43  29 S3        30.32R
DULLES         CLOUDY    76  44  32 VRB5      30.31S
ANDREWS AFB    SUNNY     74  42  31 CALM      30.31S
FT BELVOIR     SUNNY     76  44  31 CALM      30.31S
QUANTICO       SUNNY     74  50  42 CALM      30.32S
COLLEGE PARK*  CLOUDY    75  43  31 CALM      30.31S
LEESBURG*      CLOUDY    79  46  31 SE7       30.32S
MANASSAS*      SUNNY     76  44  32 SE9       30.31S
GAITHERSBURG*  CLOUDY    75  41  29 CALM      30.33R

$$

MDZ006>007-011-014-212100-
BALTIMORE METRO

CITY           SKY/WX    TMP DP  RH WIND       PRES   REMARKS
BWI AIRPORT    PTSUNNY   74  44  34 E8        30.32R
MD SCIENCE CTR   N/A     75  35  23 MISG      30.32R
MARTIN STATE   MOSUNNY   73  39  29 CALM      30.33S
ANNAPOLIS      SUNNY     72  53  51 SE3       30.32S
FORT MEADE*    CLOUDY    72  41  33 CALM      30.34R

$$

MDZ012-015-019>023-212100-
MARYLAND EASTERN SHORE

CITY           SKY/WX    TMP DP  RH WIND       PRES   REMARKS
OCEAN CITY     SUNNY     69  59  70 E6        30.33S
SALISBURY      SUNNY     76  48  37 SE5       30.31S
CAMBRIDGE*     SUNNY     75  41  29 SE7       30.31S
EASTON*        PTSUNNY   77  39  25 CALM      30.35

$$

MDZ017>025-212100-
SOUTHERN MARYLAND

CITY           SKY/WX    TMP DP  RH WIND       PRES   REMARKS
PATUXENT RIVER MOSUNNY   73  42  32 SE5       30.32R
ST INIGOES     SUNNY     75  43  31 E3        30.32R
LEONARDTOWN*   NOT AVBL

$$

MDZ003>005-212100-
NORTH CENTRAL MARYLAND

CITY           SKY/WX    TMP DP  RH WIND       PRES   REMARKS
FREDERICK*     SUNNY     79  34  19 CALM      30.33S
HAGERSTOWN APT MOSUNNY   75  40  28 S9        30.31S
WESTMINSTER*   CLOUDY    77  43  29 S3        30.33R

$$

MDZ501>502-212100-
WESTERN MARYLAND

CITY           SKY/WX    TMP DP  RH WIND       PRES   REMARKS
OAKLAND*       CLOUDY    68  46  45 SE8       30.31S
CUMBERLAND*    MOSUNNY   73  46  38 W3        30.33S

$$

VAZ025>031-212100-
SHENANDOAH VALLEY

CITY           SKY/WX    TMP DP  RH WIND       PRES   REMARKS
WINCHESTER*    SUNNY     72  46  40 E5        30.30S
FRONT ROYAL*   SUNNY     73  48  40 E3        30.29S
LURAY*         SUNNY     77  46  33 SW3       30.29S
NEW MARKET*    CLOUDY    77  45  31 W6        30.28S
STAUNTON*      CLOUDY    75  49  40 S6        30.32S
WAYNESBORO*    CLOUDY    72  53  51 SE9       30.32S

$$

WVZ021-048>050-054>055-212100-
EASTERN WEST VIRGINIA PANHANDLE

CITY           SKY/WX    TMP DP  RH WIND       PRES   REMARKS
MARTINSBURG    MOSUNNY   74  44  34 VRB3      30.30S
PETERSBURG*    CLOUDY    76  52  42 CALM      30.28R

$$

VAZ036>039-050-212100-
CENTRAL FOOTHILLS

CITY           SKY/WX    TMP DP  RH WIND       PRES   REMARKS
CHARLOTTESVILL SUNNY     78  49  35 VRB5      30.30S
CULPEPER*      SUNNY     78  41  27 E3        30.31S
ORANGE*        SUNNY     73  46  38 CALM      30.30S
GORDONSVILLE*  SUNNY     76  49  38 CALM      30.30S
WARRENTON*     SUNNY     78  34  20 CALM      30.30S

$$

VAZ055>057-212100-
NORTH AND CENTRAL PIEDMONT

CITY           SKY/WX    TMP DP  RH WIND       PRES   REMARKS
FREDERICKSBRG* SUNNY     78  44  29 E5        30.30S
STAFFORD*      SUNNY     76  40  27 E6        30.35S

$$

NCZ024-NYZ072-PAZ021-071-VAZ022-071-212100-
OTHER REGIONAL OBSERVATIONS

CITY           SKY/WX    TMP DP  RH WIND       PRES   REMARKS
NEW YORK CITY  CLOUDY    76  38  25 VRB5      30.32S
PHILADELPHIA   PTSUNNY   78  40  25 CALM      30.31S
PITTSBURGH     CLOUDY    75  51  43 SE6       30.26S
ROANOKE        PTSUNNY   74  52  46 E7        30.32S
RICHMOND       PTSUNNY   76  49  38 E5        30.31S
RALEIGH        CLOUDY    77  50  38 CALM      30.31S

$$

ANZ530>537-212100-
MARINE OBSERVATIONS

STATION/POSITION TIME  TEMP    WIND        PRES
                       AIR SEA DIR/SP/G
                 (UTC) (F)     (DEG/KT/KT) (MB)
THOMAS PT LIGHT  2000   69 68  230/  3/  3   N/A
BALT KEY BRIDGE  1948   70     140/  3/  4 1026.7R
COVE POINT       1948   69      40/  2/  3 1027.4R
LEWISETTA        1948   68 66  100/  7/  8 1026.6R
SOLOMONS ISLAND  1942   70 70   80/  4/  5 1026.3R
PINEY POINT      1906          180/  6/  7   N/A

$$





USA.gov is the U.S. government's official web portal to all federal, state and local government web resources and services.